Location: Gebenbach
(49.5378°N, 11.8735°E)
Time: 02:47:30
(UTC+00:00)

Meteor 2-1 Rocket - Pass Details

Date: 29 October 2020
Orbit: 830 x 906 km, 81.3° (Epoch: 24 November)

Event Time Altitude Azimuth Distance (km) Brightness Sun altitude
Rises 17:20:37 0° 173° (S) 3,364 7.3 -14.4°
Reaches altitude 10° 17:23:03 10° 168° (SSE) 2,432 6.5 -14.8°
Maximum altitude 17:28:20 51° 95° (E) 1,047 4.3 -15.6°
Drops below altitude 10° 17:33:41 10° 21° (NNE) 2,459 6.4 -16.5°
Sets 17:36:10 0° 16° (NNE) 3,405 7.2 -16.9°
